This demonstration page uses our WeatherBlox Daily Observations layout. Learn more.

39.92423, -83.80882

Hourly Observations for July 19, 2018

Temp ( °F °C ) Dew Point ( °F °C ) Humidity (%) Winds ( mph kmh ) Pressure ( in mb ) Visibility ( mi km ) Precip ( " mm )
12:56 am 00:56 Clear 62 16.7 57 13.9 84 84 E 5 7 30.06 1018 10 16.0934 0 0
1:56 am 01:56 Clear 61 16.1 56 13.3 84 84 E 5 7 30.07 1018 10 16.0934 0 0
2:56 am 02:56 Clear 61 16.1 56 13.3 84 84 E 8 13 30.06 1018 10 16.0934 0 0
3:56 am 03:56 Clear 60 15.6 56 13.3 86 86 ESE 8 13 30.05 1018 10 16.0934 0 0
4:56 am 04:56 Clear 59 15 55 12.8 87 87 ESE 7 11 30.06 1018 10 16.0934 0 0
5:56 am 05:56 Clear 59 15 55 12.8 87 87 ESE 7 11 30.06 1018 10 16.0934 0 0
6:56 am 06:56 Sunny 60 15.6 56 13.3 86 86 SE 7 11 30.07 1018 10 16.0934 0 0
7:56 am 07:56 Sunny 62 16.7 58 14.4 86 86 E 3 6 30.07 1018 10 16.0934 0 0
8:56 am 08:56 Sunny 69 20.6 60 15.6 73 73 SE 7 11 30.08 1019 10 16.0934 0 0
9:56 am 09:56 Sunny 73 22.8 61 16.1 66 66 SE 9 15 30.08 1019 10 16.0934 0 0
10:56 am 10:56 Sunny 76 24.4 58 14.4 54 54 SE 12 19 30.08 1019 10 16.0934 0 0
11:56 am 11:56 Sunny 78 25.6 58 14.4 50 50 SSE 10 17 30.07 1018 10 16.0934 0 0
12:56 pm 12:56 Sunny 77 25 57 13.9 50 50 E 9 15 30.05 1018 10 16.0934 0 0
1:56 pm 13:56 Sunny 80 26.7 57 13.9 45 45 E 10 17 30.04 1017 10 16.0934 0 0
2:56 pm 14:56 Sunny 81 27.2 60 15.6 49 49 SE 7 11 30.02 1017 10 16.0934 0 0
3:56 pm 15:56 Sunny 82 27.8 58 14.4 44 44 ESE 9 15 30.01 1016 10 16.0934 0 0
4:56 pm 16:56 Sunny 82 27.8 58 14.4 44 44 ESE 8 13 30 1016 10 16.0934 0 0
5:56 pm 17:56 Sunny 81 27.2 57 13.9 44 44 SSE 12 19 29.98 1015 10 16.0934 0 0
6:56 pm 18:56 Sunny 80 26.7 59 15 49 49 SE 8 13 29.97 1015 10 16.0934 0 0
7:56 pm 19:56 Sunny 78 25.6 61 16.1 56 56 ESE 6 9 29.96 1014 10 16.0934 0 0
8:56 pm 20:56 Sunny 73 22.8 60 15.6 64 64 Calm 29.96 1015 10 16.0934 0 0
9:56 pm 21:56 Clear 65 18.3 61 16.1 87 87 ESE 5 7 29.97 1015 10 16.0934 0 0
10:56 pm 22:56 Clear 64 17.8 60 15.6 87 87 ESE 7 11 29.97 1015 10 16.0934 0 0

Powered by AerisWeather